User: anonymous   Login
Location: Unspecified
(0.0000°N, 0.0000°E)
Time: 11:03:47
(UTC+00:00)
Language:

LES 1 - Orbit

View from above orbital plane
View from above orbital plane
View from above satellite
View from above satellite

Ground track
Ground track

The orbit data is extracted from the following two-line orbital elements,

1  1002U 65008C   17268.62377622 +.00000003 +00000-0 -76031-3 0  9995
2  1002 032.1470 033.5701 0015458 277.1431 082.7308 09.88352245900912
Epoch (UTC): 25 September 2017 14:58:14
Eccentricity: 0.0015458
inclination: 32.1470°
perigee height: 2779 km
apogee height: 2808 km
right ascension of ascending node: 33.5701°
argument of perigee: 277.1431°
revolutions per day: 9.88352245
mean anomaly at epoch: 82.7308°
orbit number at epoch: 90091

The dashed part of the orbit path shows where the satellite is in the earth's shadow,  

DLR